User: anonymous   Login
Location: Castelbiague
(43.0361°N, 0.9246°E)
Time: 10:05:50
(UTC+00:00)
Language:

Cosmos 1626 - Orbit

View from above orbital plane
View from above orbital plane
View from above satellite
View from above satellite

Ground track
Ground track

The orbit data is extracted from the following two-line orbital elements,

1 15494U 85009A   21260.93047031  .00000754  00000-0  28776-4 0  9993
2 15494  82.4782 132.0748 0002968  39.2446 320.9006 15.25072764  5064
Epoch (UTC): 17 September 2021 22:19:52
Eccentricity: 0.0002968
inclination: 82.4782°
perigee height: 488 km
apogee height: 492 km
right ascension of ascending node: 132.0748°
argument of perigee: 39.2446°
revolutions per day: 15.25072764
mean anomaly at epoch: 320.9006°
orbit number at epoch: 506

The dashed part of the orbit path shows where the satellite is in the earth's shadow,  

DLR